Regional Weather Roundup
Issued by NWS

Home | Current Version | Previous Version | Graphics & Text | Print | Product List | Glossary On
Versions: 1 2 3 4 5 6 7 8 9 10 11 12 13 14 15 16 17 18 19 20 21 22 23 24 25 26 27 28 29 30 31 32 33 34 35 36 37 38 39 40 41 42 43 44 45 46 47 48 49 50
000
ASUS45 KCYS 221910
RWRWY

WYOMING REGIONAL WEATHER ROUNDUP
NATIONAL WEATHER SERVICE CHEYENNE WY
100 PM MDT FRI MAY 22 2015

NOTE:  "FAIR" INDICATES FEW OR NO CLOUDS BELOW 12,000 FEET
WITH NO SIGNIFICANT WEATHER AND/OR OBSTRUCTIONS TO VISIBILITY.

WYZ001-222000-
YELLOWSTONE NATIONAL PARK

CITY           SKY/WX    TMP DP  RH WIND       PRES   REMARKS
LK YELLOWSTONE   N/A     49  33  54 E7        30.04S
W YELLOWSTONE  NOT AVBL

$$
WYZ002>013-054>058-071-098>099-222000-
NORTHERN WYOMING

CITY           SKY/WX    TMP DP  RH WIND       PRES   REMARKS
JACKSON        MOSUNNY   57  37  47 CALM      29.95F
CODY           FAIR      61  45  55 CALM      29.94F
GREYBULL       FAIR      67  41  38 CALM      29.89F
WORLAND        PTSUNNY   63  47  55 NW5       29.91F
SHERIDAN       FAIR      63  47  55 SE17G25   29.94F
BUFFALO        CLOUDY    57  45  64 SE17      30.00S
GILLETTE       PTSUNNY   56  41  57 SE24G30   30.02S
HULETT         CLOUDY    59  41  51 S8G17     30.05S
NEWCASTLE      MOCLDY    54  39  58 SE23G29   30.07S

$$
WYZ014>020-022>026-101>103-222000-
CENTRAL WYOMING

CITY           SKY/WX    TMP DP  RH WIND       PRES   REMARKS
BIG PINEY      FAIR      57  38  48 VRB6      29.97F
PINEDALE       CLOUDY    54  37  54 NW5       29.97S
DUBOIS         FAIR      54  37  54 SE12G18   29.98F
LANDER         CLOUDY    55  45  68 N8        29.95F
RIVERTON       LGT RAIN  51  47  86 NE7       29.98S
CASPER         LGT RAIN  50  46  86 E10       29.97F
DOUGLAS        LGT RAIN  50  46  86 SE18G28   30.02S

$$
WYZ021-027>030-104>119-222000-
SOUTHERN WYOMING

CITY           SKY/WX    TMP DP  RH WIND       PRES   REMARKS
EVANSTON       FAIR      51  41  68 SW10      29.98F
KEMMERER       MOCLDY    54  39  58 SE3       29.98F
FORT BRIDGER   PTCLDY    55  41  58 CALM      30.00F THUNDER
ROCK SPRINGS   LGT RAIN  49  42  77 SE5       29.98F
DIXON          CLOUDY    47  44  86 SW5       30.05F
RAWLINS        LGT RAIN  47  43  86 SW10      29.99S
SARATOGA       LGT RAIN  50  41  71 W10       30.02S
LARAMIE        LGT RAIN  45  41  86 SE18      30.00S
CHEYENNE       LGT RAIN  44  41  89 SE13      30.04S
TORRINGTON     LGT RAIN  50  47  89 SE13      30.04F
PINE BLUFFS    LGT RAIN  46  45  93 SE12      30.05S

$$



USA.gov is the U.S. government's official web portal to all federal, state and local government web resources and services.